Regional Weather Roundup
Issued by NWS Newport/Morehead, NC

Home | Current Version | Previous Version | Text Only | Print | Product List | Glossary On
Versions: 1 2 3 4 5 6 7 8 9 10 11 12 13 14 15 16 17 18 19 20 21 22 23 24 25 26 27 28 29 30 31 32 33 34 35 36 37 38 39 40 41 42 43 44 45 46 47 48 49 50
000
ASUS42 KMHX 292325
RWRMHX
WEATHER ROUNDUP FOR EASTERN NORTH CAROLINA
NATIONAL WEATHER SERVICE NEWPORT/MOREHEAD CITY NC
700 PM EDT FRI JUL 29 2016

NOTE: "FAIR" INDICATES FEW OR NO CLOUDS BELOW 12,000 FEET
WITH NO SIGNIFICANT WEATHER AND/OR OBSTRUCTIONS TO VISIBILITY

NCZ015>017-031-032-045>047-102-103-300000-
NORTH COAST

CITY           SKY/WX    TMP DP  RH WIND       PRES   REMARKS
EDENTON        MOSUNNY   89  72  58 N7        29.90R
ELIZABETH CITY PTSUNNY   88  74  63 N8        29.89R
KITTY HAWK     PTCLDY    87  80  78 E3        29.88R HX 103
MANTEO           N/A     85  78  81 NE5       29.89R

$$

NCZ045>047-081-094-103-104-300000-
CENTRAL COAST

CITY           SKY/WX    TMP DP  RH WIND       PRES   REMARKS
FRISCO         CLOUDY    84  78  82 SW10      29.89R

$$

NCZ095-097-098-100-101-300000-
SOUTHERN COAST

CITY           SKY/WX    TMP DP  RH WIND       PRES   REMARKS
BEAUFORT       CLOUDY    86  78  77 SW14      29.89S
CEDAR ISLAND   NOT AVBL
JACKSONVILLE   PTSUNNY   93  70  46 NW7       29.89R
PINEY ISLAND   NOT AVBL
WILMINGTON     SUNNY     93  71  48 W10       29.90S HX 100


$$

NCZ011>013-027>030-043-044-078>080-089-090>093-098-300000-
COASTAL PLAIN

CITY           SKY/WX    TMP DP  RH WIND       PRES   REMARKS
AHOSKIE        SUNNY     83  75  76 CALM      29.91S
CLINTON        SUNNY     93  71  48 NW3       29.91R
ELIZABETHTOWN  MOSUNNY   93  71  49 SW5       29.91R HX 100
GOLDSBORO      SUNNY     93  68  43 NW7       29.90R
GREENVILLE     SUNNY     90  73  58 N5        29.93R
HAVELOCK       MOSUNNY   89  77  67 SW9       29.90R HX 101
KENANSVILLE    NOT AVBL
KINSTON        MOSUNNY   91  70  49 NW6       29.91R
NEW BERN       MOSUNNY   90  72  55 NW6       29.90R
RICHLANDS      MOSUNNY   93  71  48 W5        29.90S HX 100
ROCKY MOUNT    SUNNY     90  72  55 NW6       29.91R
WASHINGTON     SUNNY     87  75  67 N5        29.90R
WHITEVILLE     MOSUNNY   91  75  58 CALM      29.91R HX 101

$$

AMZ130-135-150-152-154-156-158-170-250-252-270-ANZ085-086-088-633-658-670-300000-
MARINE OBSERVATIONS

STATION/POSITION TIME  TEMP    WIND        PRES    WAVE   SWELL
                       AIR SEA DIR/SP/G            HT/PER HT/PER
                 (UTC) (F)     (DEG/KT/KT) (MB)    (FT/S) (FT/S)
CHESAPEAKE LIGHT NOT AVBL
64 E VA BEACH    2250   83 83  320/  8/ 10 1011.8    3/ 6   2/ 6
DUCK             2200   87 67              1011.1
2 E DUCK         2211      80                N/A     1/ 9
OREGON INLET     2200   83 85              1011.6
13E OREGON INLT  2300      79                N/A     3/ 5   2/ 5
HATTERAS CG      2200   84 84              1011.6
DIAMOND BUOY     2250   86 86  230/ 19/ 23 1011.8    4/ 6   2/ 8
CAPE LOOKOUT     2300   85     220/ 10/ 13 1012.2
BEAUFORT LAB     2200   86 83              1011.5
30 SE NEW RVR IN 2308   86 85  230/ 17/ 23 1012.5
30 SE NEW RVR IN 2225      85                N/A     5/ 5
27 SE WRIGHTSVLE 2308   85 84  220/ 16/ 21 1013.0
5 SE WRIGHTSVLE  2308   84 80  220/ 14/ 19 1013.5
225 S CAPE HAT   2250   85 85  250/  8/ 10 1015.3    4/ 6   3/ 6
41 SE CHARLESTON 2250   86 86  210/ 17/ 21 1013.0    3/ 5   2/ 8

$$



USA.gov is the U.S. government's official web portal to all federal, state and local government web resources and services.